Miscellaneous Local Product
Issued by NWS Hastings, NE

Home | Current Version | Previous Version | Text Only | Print | Product List | Glossary On
Versions: 1 2 3 4 5 6 7 8 9 10 11 12 13 14 15 16 17 18 19 20 21 22 23 24 25 26 27 28 29 30 31 32 33 34 35 36 37 38 39 40 41 42 43 44 45 46 47 48 49 50
000
AXUS43 KGID 302002
MISGRI

GID CWA HOURLY WEATHER ROUNDUP
NATIONAL WEATHER SERVICE HASTINGS NE
300 PM CDT MON MAR 30 2015

NOTE: "FAIR" INDICATES FEW OR NO CLOUDS BELOW 12,000 FEET WITH NO
SIGNIFICANT WEATHER AND/OR OBSTRUCTIONS TO VISIBILITY.

...SOUTH CENTRAL NEBRASKA...

CITY           SKY/WX    TMP DP  RH WIND       PRES   REMARKS
GRAND ISLAND   FAIR      75  27  17 W15       29.98F
HASTINGS       FAIR      75  30  19 W17G25    29.96F
KEARNEY        FAIR      73  27  17 W9        29.98F
ORD            MOSUNNY   75  22  13 NW16G24   29.96F
YORK           FAIR      73  32  21 W15G25    29.97F
AURORA         FAIR      74  28  17 W16G22    29.97F
LEXINGTON      SUNNY     74  26  16 CALM      29.99F
HOLDREGE       FAIR      75  24  14 N9        29.98F
HEBRON         FAIR      75  28  17 SW18G29   29.99F

...NEBRASKA PANHANDLE...

CITY           SKY/WX    TMP DP  RH WIND       PRES   REMARKS
CHADRON        MOSUNNY   69  28  21 NW15G29   30.06F
ALLIANCE       MOSUNNY   70  25  18 NW18G25   30.08F
SCOTTSBLUFF    SUNNY     71  26  18 NW12G22   30.10F
SIDNEY         SUNNY     71  25  17 N15       30.11F

...WESTERN AND NORTH CENTRAL NEBRASKA...

CITY           SKY/WX    TMP DP  RH WIND       PRES   REMARKS
VALENTINE      MOSUNNY   71  27  19 NW20G29   30.01F
AINSWORTH      MOSUNNY   72  26  18 NW14G26   30.00F
ONEILL         SUNNY     75  26  15 NW22G29   29.96F
BROKEN BOW     MOSUNNY   77  25  14 NW9G18    29.98F
IMPERIAL         N/A     76  18  11 N12G20    30.03F
NORTH PLATTE   SUNNY     77  22  13 N12       29.99F
MCCOOK         SUNNY     79  22  12 N9G22     29.99F

...EASTERN NEBRASKA...

CITY           SKY/WX    TMP DP  RH WIND       PRES   REMARKS
NORFOLK        FAIR      76  26  15 W17       29.92F
SO SIOUX CITY  FAIR      78  24  13 W14G24    29.88F
TEKAMAH        FAIR      80  27  14 SW25G35   29.90F
COLUMBUS       FAIR      75  28  17 SW13G20   29.96F
ALBION         FAIR      76  22  13 NW12G18   29.95F
OMAHA EPPLEY   PTSUNNY   76  29  17 SW22G30   29.93F
OFFUTT AFB     FAIR      75  29  18 SW18G29   29.94F
MILLARD        FAIR      74  31  20 SW14G23   29.95F
LINCOLN        FAIR      76  30  18 W22G31    29.98F
NEBRASKA CITY  FAIR      74  18  12 W22G31    29.97F
BEATRICE       FAIR      74  32  21 SW18G30   29.99F
FALLS CITY     FAIR      75  27  17 S15       30.00F

...NORTHERN KANSAS...

CITY           SKY/WX    TMP DP  RH WIND       PRES   REMARKS
GOODLAND       SUNNY     77  16  10 N20G28    30.04F
HILL CITY      FAIR      81  26  13 VRB7      29.96F
NORTON         CLEAR     79  12   8 NW12      29.96F
PHILLIPSBURG   SUNNY     82  27  13 SW12      29.96F
SMITH CENTER   SUNNY     79  30  17 SW10G24   29.97F
BELOIT         SUNNY     77  30  18 S17G23    29.97F
HAYS           FAIR      82  34  17 SW20      29.98F
RUSSELL        FAIR      79  33  19 SW21G31   29.97F
CONCORDIA      FAIR      77  34  21 SW22G31   29.98F
SALINA         FAIR      77  36  22 SW17G28   30.02F
TOPEKA         FAIR      73  27  18 S13G23    30.04F



USA.gov is the U.S. government's official web portal to all federal, state and local government web resources and services.